Regional Weather Roundup
Issued by NWS Burlington, VT

Home | Current Version | Previous Version | Text Only | Print | Product List | Glossary On
Versions: 1 2 3 4 5 6 7 8 9 10 11 12 13 14 15 16 17 18 19 20 21 22 23 24 25 26 27 28 29 30 31 32 33 34 35 36 37 38 39 40 41 42 43 44 45 46 47 48 49 50
000
ASUS41 KBTV 240730
RWRBTV
VERMONT REGIONAL WEATHER ROUNDUP
NATIONAL WEATHER SERVICE BURLINGTON VT
200 AM EST TUE JAN 24 2017

NOTE: "FAIR" INDICATES FEW OR NO CLOUDS BELOW 12,000 FEET WITH NO
SIGNIFICANT WEATHER AND/OR OBSTRUCTIONS TO VISIBILITY.

* THESE REPORTS ARE NOT UNDER NWS QUALITY CONTROL AND/OR DO NOT
  REPORT WEATHER SUCH AS PRECIPITATION AND FOG.

VTZ001>019-240800-
_____VERMONT_____


CITY           SKY/WX    TMP DP  RH WIND       PRES   REMARKS
BURLINGTON     FRZ RAIN  32  26  78 N6        29.84F WCI  26
MONTPELIER     FRZ RAIN  27  22  81 NE5       29.85F WCI  22
MORRISVILLE    FRZ RAIN  29  21  72 N5        29.86F WCI  24
ST. JOHNSBURY*   N/A     31  21  66 MISG      29.84F
LYNDONVILLE*   FLURRIES  29  20  68 N7        29.85F WCI  22
MIDDLEBURY*    MIX PCPN  31  31 100 CALM      29.76F
RUTLAND*       LGT SNOW  30  27  86 SE10G31   29.68F WCI  21
SPRINGFIELD    MIX PCPN  30  24  78 NE10      29.77F WCI  21
HIGHGATE*      MIX PCPN  31  23  72 NE5       29.87F WCI  26
NEWPORT*       MIX PCPN  29  19  64 NE9       29.86F WCI  21
BENNINGTON     LGT RAIN  33  24  69 E15G25    29.61F WCI  23
SUTTON*          N/A     27 N/A N/A MISG        N/A
MT. MANSFIELD*   N/A     19 N/A N/A S47         N/A  WCI  -3

_____LAKE CHAMPLAIN_____


CITY           SKY/WX    TMP DP  RH WIND       PRES   REMARKS
COLCHESTER RF*   N/A     32  28  86 NE13        N/A  WCI  22

$$

NYZ007-026>031-035-052-083-087-240800-
_____NORTHERN NEW YORK_____


CITY           SKY/WX    TMP DP  RH WIND       PRES   REMARKS
PLATTSBURGH    MIX PCPN  32  24  72 NE5       29.86F WCI  27
SARANAC LAKE   FRZ RAIN  28  24  85 NE10      29.69F WCI  19
MASSENA        MIX PCPN  29  23  78 NE17      29.84F WCI  17
OGDENSBURG*    MIX PCPN  29  26  90 NE13G20   29.79F WCI  19
POTSDAM*       MIX PCPN  28  28 100 E12G18    29.79F WCI  18
WATERTOWN      FRZ RAIN  31  30  96 NE14      29.72F FOG     WCI  21
FT DRUM        FRZ RAIN  28  27  93 NE10      29.70F WCI  19
ALBANY         LGTSLEET  33  29  85 N12       29.65F WCI  24
GLENS FALLS    FRZ RAIN  34  29  82 N16       29.67F WCI  24

$$
NHZ002-005-011-240800-
_____NEW HAMPSHIRE_____


CITY           SKY/WX    TMP DP  RH WIND       PRES   REMARKS
LEBANON        MIX PCPN  31  28  89 NE6       29.78F FOG     WCI  25
KEENE          LGT SNOW  30  25  80 NE14G26   29.68F WCI  20
MT WASHINGTON  SNOW      18  18 100 E54G63      N/A  VSB 1/16WCI  -7
PLYMOUTH       LGT SNOW  32  26  79 E6G17     29.82F WCI  26
WHITEFIELD     MIX PCPN  31  18  58 E17       29.84F WCI  19

$$

_____REGIONAL QUEBEC LOCATIONS_____


CITY           SKY/WX    TMP DP  RH WIND       PRES   REMARKS
MONTREAL       CLOUDY    25  18  74 NE16G22   29.92F WCI  12
QUEBEC CITY    MOCLDY    25  16  68 NE17G25   30.07S WCI  11
SHERBROOKE     MOCLDY    27  14  59 E8        29.92F WCI  18

_____REGIONAL ONTARIO LOCATIONS_____


CITY           SKY/WX    TMP DP  RH WIND       PRES   REMARKS
OTTAWA         CLOUDY    27  18  69 NE16G23   29.85F WCI  14

______KEY______
VSB  - VISIBILITY IN MILES
WCI  - WIND CHILL INDEX
HX   - HEAT INDEX
$$
NNNN




USA.gov is the U.S. government's official web portal to all federal, state and local government web resources and services.